{"data":{"norad_id":59654,"intl_designator":"2024-084A","name":"STARLINK-31589","alt_names":[],"object_type":"PAYLOAD","status":"ACTIVE","operator":null,"country":"US","launch_date":"2024-05-06","launch_site_code":"AFETR","launch_vehicle":null,"mission":null,"orbit_class":"UNKNOWN","rcs_meters":null,"size_class":null,"mass_kg":null,"dimensions":null,"purposes":["comms"],"wikipedia_slug":null,"has_3d_model":false,"image_url":null,"decayed_at":null,"tle_current":{"epoch":"2026-09-21T15:26:13.146144Z","epoch_age_seconds":69484,"freshness":"FRESH","line1":"1 59654U 24084A   26264.64320771  .00000705  00000+0  35145-4 0  9990","line2":"2 59654  43.0045  14.9893 0001382 257.9636 102.1061 15.27578535134369","mean_motion":15.27578535,"eccentricity":0.0001382,"inclination_deg":43.0045,"raan_deg":14.9893,"arg_perigee_deg":257.9636,"mean_anomaly_deg":102.1061,"bstar":3.5145e-5,"rev_number":13436,"period_min":94.266839118684,"perigee_km":482.10526625547,"apogee_km":484.00169930491,"semimajor_km":6861.1904827802,"source":"CELESTRAK","updated_at":"2026-09-22T09:00:49.024114Z"}}}